Location: Allos
(44.2333°N, 6.6333°E)
Time: 04:58:31
(UTC+00:00)

Meteor 2-12 Rocket - Pass Details

Date: 01 December 2020
Orbit: 935 x 958 km, 82.5° (Epoch: 24 January)

Event Time Altitude Azimuth Distance (km) Brightness Sun altitude
Rises 16:26:40 0° 352° (N) 3,645 7.3 -5.7°
Reaches altitude 10° 16:29:11 10° 353° (N) 2,693 6.6 -6.1°
Maximum altitude 16:35:22 82° 81° (E) 966 4.5 -7.1°
Drops below altitude 10° 16:41:28 10° 169° (S) 2,659 7.0 -8.1°
Sets 16:43:56 0° 171° (S) 3,596 7.6 -8.5°
